Theta_e
290 291 292 293 293 294 295 296 296 296 297 297 297 297 297 298 299 299 300 300 300 301 301 301 301 301 301 301 300 300 301 302 302 303 303 302 301 301 300 301 301 301 301 302 302 302 302 302 303 305 308 309 310 310 310 311 311 310 310 311 311 311
291 291 291 292 292 293 294 295 295 295 296 296 296 296 296 297 298 299 299 300 300 301 301 301 302 301 301 300 300 300 301 302 302 302 300 301 300 300 300 301 301 301 301 301 302 302 301 303 306 308 309 309 310 310 310 310 310 309 309 309 310 310
291 290 290 291 290 291 293 294 295 295 295 296 296 296 296 297 298 299 300 300 300 300 300 300 301 301 301 300 300 300 301 301 300 301 301 298 299 299 300 301 301 302 302 302 302 303 305 307 308 308 308 308 308 309 309 309 309 308 308 308 308 309
291 290 289 290 290 291 292 294 294 294 295 296 295 296 296 297 298 299 299 300 300 300 300 301 301 301 300 299 299 300 300 300 300 300 298 299 299 299 300 301 301 301 302 302 303 306 307 308 308 308 307 307 307 307 308 307 307 307 307 307 307 308
290 289 289 289 290 291 292 293 294 294 294 294 295 296 296 297 298 299 299 299 299 299 300 300 300 300 299 299 299 299 299 299 299 298 299 299 298 298 300 300 301 302 303 304 305 307 307 308 308 308 307 308 308 307 306 307 307 307 306 306 306 307
288 288 288 288 289 290 291 292 293 294 294 294 295 295 296 297 297 298 298 298 298 299 298 298 298 298 299 299 299 299 299 299 298 297 299 298 298 298 298 300 301 302 303 304 306 307 308 308 308 307 308 308 308 307 307 306 306 307 307 307 306 306
288 288 288 288 289 289 290 292 293 293 293 293 294 295 296 297 297 297 297 297 297 296 297 297 296 297 297 298 298 298 298 297 297 296 298 297 297 298 298 299 301 302 303 305 306 307 308 308 307 307 307 308 307 307 307 306 306 306 307 307 307 303
287 288 288 288 288 289 290 290 291 291 292 293 294 295 295 295 295 296 296 296 296 295 295 296 295 296 297 298 297 297 297 296 296 296 296 297 298 297 298 300 301 302 304 305 307 308 308 308 307 307 307 307 306 306 307 306 306 306 306 307 307 306
288 287 288 288 288 287 288 288 289 289 290 291 291 292 294 294 295 295 295 295 295 295 295 295 296 297 297 297 297 296 295 295 294 295 296 296 298 297 298 300 302 303 304 305 307 308 308 308 307 307 306 306 305 306 306 306 306 306 306 306 306 306
286 286 287 287 288 287 287 288 290 291 291 291 290 290 292 293 293 293 294 294 294 295 295 295 296 296 297 296 295 294 294 294 293 295 295 294 296 297 298 299 301 301 301 304 306 307 308 308 307 306 306 306 306 306 306 306 305 305 305 305 305 306
286 285 286 287 287 287 287 287 287 287 287 288 289 289 291 291 292 292 292 292 293 294 294 294 294 294 293 292 293 293 293 293 293 293 293 294 295 296 297 298 299 299 301 302 304 305 306 307 307 307 305 305 306 307 306 306 305 305 305 304 304 305
285 285 285 285 286 287 287 288 288 289 290 289 289 289 290 290 291 291 291 292 293 293 293 292 291 291 291 291 292 292 292 292 291 291 291 293 294 294 294 295 297 299 302 303 302 302 304 305 307 302 299 300 305 306 307 306 305 304 304 303 302 302
284 284 284 285 285 286 288 289 289 288 288 288 288 289 289 290 290 290 291 292 293 292 291 290 290 290 290 291 292 290 290 291 290 290 291 291 292 294 293 294 298 300 301 302 301 300 301 303 304 298 299 300 301 305 306 305 304 304 303 302 301 301
284 285 285 285 285 286 286 287 287 286 288 288 288 289 287 289 290 291 290 290 289 289 290 289 289 289 290 289 290 290 289 289 288 289 290 291 292 293 292 293 298 299 300 300 300 300 300 299 297 298 299 299 299 299 304 305 304 303 303 301 301 301
284 284 285 285 285 285 286 287 285 287 288 288 289 287 287 288 289 290 290 289 289 289 289 289 289 289 289 289 290 289 288 288 289 289 289 291 292 292 293 296 297 298 298 299 299 299 299 295 296 297 298 298 298 298 300 304 304 303 302 301 301 301
284 284 284 285 286 286 285 285 286 287 287 286 285 287 287 289 288 289 289 288 289 289 289 289 289 289 289 288 288 288 288 288 289 289 289 289 290 293 295 294 295 296 296 297 298 297 294 295 295 296 296 296 297 297 300 304 303 302 301 301 300 300
284 284 283 284 284 285 284 284 283 284 285 285 285 285 287 288 288 288 288 288 287 288 288 289 289 289 288 287 288 288 288 289 288 288 288 289 291 293 294 294 295 295 295 294 295 294 294 295 294 295 295 296 296 297 298 303 302 301 300 300 300 300
283 283 283 284 283 283 284 284 284 283 283 283 285 284 286 287 287 287 286 287 287 288 288 289 289 288 287 287 287 288 288 288 288 288 287 288 289 290 291 292 294 294 294 294 293 293 293 292 293 294 295 295 296 297 299 301 301 300 299 298 295 297
284 284 283 283 282 282 283 283 284 283 282 283 283 283 283 284 286 286 286 287 287 287 288 289 289 288 287 287 287 288 288 288 287 286 286 287 288 289 290 292 292 293 293 292 293 293 294 292 291 293 294 294 296 296 299 299 299 299 298 298 295 296
284 284 283 282 282 283 283 282 283 283 282 282 282 282 282 283 285 286 286 286 287 287 288 288 289 288 288 287 288 288 288 288 287 287 287 288 287 288 289 290 291 291 292 292 292 293 294 294 291 292 293 294 294 295 298 298 298 294 294 293 292 293
284 284 283 283 282 283 283 282 282 283 283 281 282 282 282 283 284 284 285 286 287 287 288 288 288 289 288 288 289 289 288 287 288 287 286 287 286 286 287 289 289 289 290 291 291 289 292 293 290 291 293 293 294 295 298 297 296 294 292 291 291 290
283 283 283 282 283 283 282 282 282 282 282 282 281 282 282 284 285 286 284 284 285 286 287 287 288 288 288 288 289 288 288 288 286 285 286 285 285 285 286 287 288 288 288 289 290 290 291 292 291 290 292 293 293 295 296 296 295 294 292 291 291 290
283 283 283 283 284 284 283 282 281 282 282 282 281 281 283 284 284 283 283 283 284 284 285 286 287 288 288 288 289 289 287 286 287 286 286 286 284 284 285 286 287 287 287 288 288 289 290 292 291 289 291 292 293 294 294 294 295 294 292 291 290 291
281 282 283 283 284 284 284 282 281 281 281 281 281 282 283 283 283 282 282 283 284 284 285 285 286 287 288 287 285 286 286 285 286 286 286 285 284 284 285 286 286 286 286 287 287 288 289 289 289 290 289 292 293 294 294 294 293 294 293 291 291 290
279 281 282 283 284 284 284 283 281 281 281 280 281 283 283 283 283 282 282 282 283 283 284 285 285 287 288 287 286 286 286 285 285 284 285 284 284 284 285 285 286 286 286 286 287 288 288 289 289 288 289 289 292 293 293 294 293 293 292 293 291 290
279 280 281 282 283 284 284 283 281 281 280 280 282 282 283 283 283 282 281 281 282 283 283 284 285 286 286 286 286 286 286 285 285 285 285 285 285 285 285 285 285 285 285 285 286 287 288 288 289 288 288 288 291 293 293 293 293 292 292 293 292 291
278 279 280 281 282 283 283 282 281 280 279 281 282 282 282 282 283 283 282 281 281 282 283 283 284 285 285 285 286 286 286 284 285 285 284 285 284 285 285 285 285 285 285 285 285 286 287 288 288 288 288 288 288 291 293 293 292 292 292 291 290 290
278 278 279 280 282 282 282 281 281 279 279 280 280 281 281 282 282 282 283 282 280 281 281 282 283 283 284 285 285 287 287 286 285 286 285 285 285 285 285 285 285 285 285 284 284 285 286 287 288 288 288 287 288 288 291 291 291 289 290 290 289 288
276 277 278 279 281 281 280 279 280 280 279 278 278 279 280 281 282 282 283 283 283 280 281 283 283 283 283 284 284 285 286 286 286 286 285 285 285 285 285 285 285 285 284 284 284 284 285 286 287 288 288 288 289 289 289 290 289 288 288 288 288 288
276 276 277 278 280 279 278 278 280 279 277 277 277 277 278 279 281 281 282 283 283 283 282 282 283 284 283 284 284 285 284 285 285 286 286 286 286 286 285 285 285 285 285 285 285 284 284 285 286 287 287 288 289 289 290 290 289 289 290 289 288 288
275 276 277 277 277 276 276 277 279 278 276 275 275 275 276 277 279 280 282 283 283 283 282 283 283 284 284 284 284 285 286 286 286 286 287 287 287 288 288 287 287 286 287 287 286 285 284 285 286 287 288 288 289 289 290 289 290 290 290 288 288 287
275 275 275 275 274 274 274 275 276 277 275 274 274 274 274 275 277 279 281 283 283 284 283 283 283 283 284 284 284 284 284 283 284 287 287 287 286 286 288 288 287 287 287 286 286 287 287 286 287 288 288 288 289 289 290 289 290 290 289 288 289 288
275 275 273 273 273 272 272 273 274 275 274 273 272 272 273 274 275 277 279 281 283 284 284 284 283 283 283 284 285 284 284 283 284 286 287 286 284 285 287 288 288 288 287 287 285 286 288 287 287 288 288 288 289 289 289 290 290 290 289 289 288 288
274 273 271 271 271 270 271 271 272 273 272 272 271 271 271 272 273 275 278 280 281 283 283 284 284 284 283 283 284 284 284 284 283 281 284 284 284 285 287 287 287 287 287 287 286 284 283 286 287 287 288 288 288 288 289 289 289 289 289 289 290 288
274 273 271 270 269 269 269 269 270 271 270 270 269 270 270 271 272 274 277 279 280 282 283 283 283 284 284 284 284 284 284 284 283 283 282 281 283 285 286 287 287 287 287 287 287 287 286 286 286 287 287 287 288 288 288 289 289 289 289 289 288 287
273 271 269 268 267 267 267 267 268 269 268 268 268 268 269 270 271 274 277 278 279 280 281 282 283 283 284 285 285 285 285 285 285 284 284 283 282 281 282 285 286 287 287 287 287 287 286 286 286 287 287 287 287 288 288 288 288 289 290 289 287 287
272 269 268 267 266 266 266 266 267 267 267 267 267 267 268 269 271 274 276 278 279 280 280 282 282 282 283 284 284 285 285 285 285 285 285 284 283 283 283 283 284 285 286 286 286 287 286 286 286 286 287 287 287 288 288 289 287 287 287 288 288 287
270 267 266 265 264 264 264 264 266 266 265 265 266 266 267 269 271 272 274 276 279 279 279 280 282 282 283 283 284 284 285 285 285 285 285 285 284 284 284 283 283 284 283 284 285 285 286 286 286 286 286 287 287 288 288 286 286 286 286 287 287 287
Wind_Speed
10 10 10 7 7 7 7 7 7 7 8 9 12 15 15 15 13 13 11 12 11 11 14 14 13 11 11 10 10 10 11 12 10 11 11 9 8 8 8 8 8 7 7 7 6 6 6 4 4 4 4 6 7 7 8 7 8 9 10 8 8 9
11 10 10 9 8 7 6 6 5 7 8 8 9 8 8 10 11 11 12 12 10 10 10 11 12 12 12 11 11 11 12 12 11 11 9 11 9 8 8 8 8 8 8 6 6 5 4 3 4 5 7 7 8 7 7 7 7 8 8 7 6 6
9 7 5 5 5 4 4 6 9 9 7 8 8 11 11 11 12 11 11 10 11 11 13 12 11 12 11 11 11 12 11 10 10 10 10 7 9 8 8 8 8 8 7 6 6 5 5 6 6 6 7 8 8 8 8 7 8 8 7 6 6 6
8 5 3 3 4 4 6 6 6 6 8 8 8 8 10 11 10 11 10 9 10 11 11 12 11 12 11 12 12 12 11 10 10 10 8 10 8 9 9 9 7 7 7 7 6 5 6 7 8 8 8 8 8 8 7 7 7 7 7 6 8 8
4 3 4 4 5 5 6 6 7 7 7 7 7 8 8 8 9 8 9 10 10 11 11 11 11 11 11 13 11 11 11 10 10 9 10 9 8 7 8 8 8 8 7 6 5 6 7 8 9 8 8 8 8 8 7 7 7 6 6 7 8 8
1 2 3 4 4 4 5 5 5 5 6 6 7 9 8 8 8 9 9 9 10 10 10 10 9 11 11 13 11 12 11 10 9 8 9 8 7 8 6 7 8 7 7 6 7 8 8 8 8 8 8 9 8 7 7 7 6 6 7 7 7 6
1 1 2 3 3 3 4 4 5 5 6 5 7 6 7 8 7 9 9 9 10 10 10 10 9 10 11 12 10 12 10 9 9 8 9 8 8 8 7 6 7 8 7 8 8 8 9 8 8 8 8 8 7 7 6 6 6 6 7 7 7 6
0 0 1 2 2 3 3 3 4 4 4 6 6 7 7 6 6 8 9 9 10 9 10 10 9 11 12 12 11 11 10 9 8 9 7 9 9 7 7 8 7 8 8 8 8 8 8 7 8 8 8 8 7 7 6 6 6 7 7 7 7 6
0 1 1 3 4 4 4 4 4 4 4 5 5 5 6 6 7 7 8 8 9 10 10 10 11 11 11 11 10 8 8 9 8 9 9 8 9 9 8 8 8 7 7 7 7 8 7 7 8 8 8 8 7 7 7 7 6 6 6 6 7 6
3 2 3 3 3 3 4 4 5 7 7 8 6 5 6 6 7 7 8 9 9 10 11 11 11 11 11 9 7 8 8 7 7 8 7 7 8 9 9 9 9 7 6 7 7 7 6 7 7 7 8 8 8 7 7 7 7 7 6 6 6 6
9 5 4 3 1 3 4 4 4 4 4 5 5 5 7 7 8 7 7 7 8 10 10 9 8 7 7 7 7 7 8 8 8 7 7 8 7 7 8 7 7 7 7 6 6 6 6 7 7 7 7 7 7 7 8 7 7 7 7 6 6 6
14 13 6 4 4 5 4 4 5 6 6 6 5 6 6 7 7 8 7 9 9 8 7 7 6 7 6 7 8 8 8 8 8 7 7 8 7 7 6 6 6 6 7 8 6 5 6 6 6 8 12 11 8 8 7 6 7 7 7 7 6 5
14 13 14 8 6 7 7 7 6 5 5 5 5 6 6 8 8 7 8 10 8 7 7 7 7 7 8 8 8 7 8 8 7 7 8 7 7 7 6 6 7 7 7 7 6 6 6 6 6 10 11 12 12 9 7 7 6 6 6 6 6 6
16 15 11 12 14 9 6 6 5 5 7 6 6 6 5 6 8 9 9 8 6 6 7 7 7 8 8 8 9 8 8 7 7 8 8 7 7 7 6 7 8 7 7 7 6 6 5 5 7 11 11 11 12 10 6 6 6 6 6 6 6 6
12 12 13 11 8 9 11 7 3 7 7 8 7 5 6 6 6 7 8 7 7 7 7 7 8 9 8 9 9 8 7 8 8 8 8 9 8 6 8 8 7 8 7 6 7 6 6 5 8 11 11 11 11 11 9 5 6 6 6 6 7 6
12 12 11 10 11 10 8 6 6 5 2 4 4 7 7 8 7 7 6 5 7 8 8 8 9 9 9 8 7 7 8 8 10 8 7 6 6 8 8 7 8 7 8 7 7 6 5 6 7 10 11 11 11 12 10 5 7 6 6 6 7 6
15 16 16 15 13 12 11 7 4 4 2 2 5 5 7 7 7 7 7 7 6 6 7 8 9 9 8 7 7 8 8 9 7 7 7 8 10 10 10 10 9 8 7 7 6 6 6 6 8 9 9 9 11 11 10 5 6 5 5 6 6 7
14 14 14 12 11 11 10 11 9 5 4 1 4 4 5 6 6 7 6 7 8 8 8 9 9 8 7 8 8 9 9 8 9 10 8 7 6 5 5 5 6 8 8 7 6 6 6 5 8 9 9 9 9 10 7 5 6 6 5 5 5 5
11 12 12 13 11 12 14 13 12 7 2 2 3 4 4 5 6 7 8 8 9 9 9 9 10 10 9 9 10 10 10 9 9 6 6 8 7 8 8 9 9 8 8 8 8 8 7 6 7 9 9 9 9 8 5 5 5 5 6 5 5 6
11 10 11 13 12 12 13 13 12 10 4 1 1 3 4 4 7 6 7 8 8 9 10 10 10 10 10 10 12 12 10 9 6 8 8 10 10 10 9 7 6 7 7 8 9 9 9 7 7 10 9 10 10 9 6 5 5 4 5 4 4 4
11 10 11 11 14 15 14 13 13 10 7 3 0 1 2 4 6 5 8 9 9 9 10 10 9 10 10 11 11 11 10 10 10 8 7 7 7 7 6 6 7 6 6 6 7 8 9 7 7 9 10 11 11 9 5 6 5 5 5 4 4 3
11 12 12 12 12 12 13 12 11 10 8 7 2 1 4 6 8 6 5 4 5 6 7 7 9 8 9 11 10 9 10 8 6 8 9 7 6 6 6 6 6 8 7 5 6 7 7 7 6 7 10 10 12 12 7 6 7 7 6 5 6 5
8 9 9 8 10 10 10 11 10 11 10 8 5 5 6 6 5 4 4 4 4 5 6 6 8 10 9 8 9 9 7 8 9 8 8 8 6 6 6 8 7 6 6 6 6 6 6 7 7 7 11 11 12 13 11 7 8 7 7 6 5 5
8 9 10 9 10 9 9 9 10 9 10 8 9 9 8 7 6 5 4 5 6 6 6 8 8 8 9 7 5 5 6 5 6 8 8 6 7 8 8 7 6 6 6 5 6 7 7 6 9 7 10 12 12 14 14 9 7 8 8 7 6 5
10 9 9 9 8 9 8 8 9 9 10 10 11 11 10 9 7 6 5 4 5 6 7 7 8 9 7 7 8 8 8 7 7 7 7 8 7 7 7 8 7 7 6 6 6 7 7 6 7 10 8 11 13 14 14 12 9 10 9 9 8 8
7 9 9 7 7 7 7 8 9 9 10 11 12 12 10 10 9 6 5 4 4 5 6 7 8 8 7 8 8 8 8 8 8 8 8 9 9 8 8 7 7 7 7 9 7 7 7 7 6 8 11 9 13 13 14 13 13 14 9 8 8 8
10 9 9 8 7 6 6 7 8 9 10 12 12 12 12 11 11 9 6 5 4 5 6 6 7 8 7 7 8 9 8 7 8 8 7 8 8 8 9 8 8 9 9 8 9 8 8 8 7 6 9 12 11 13 13 13 13 14 13 8 5 7
9 10 11 9 8 7 7 7 7 8 10 11 12 13 12 11 11 10 9 6 4 5 4 6 6 6 6 7 8 9 9 11 11 10 9 9 9 9 10 9 9 9 9 9 8 8 8 8 7 7 7 8 10 10 13 13 13 13 13 10 8 10
12 12 13 13 9 8 8 7 6 7 9 9 9 11 12 12 10 10 9 8 6 4 5 6 6 6 6 6 7 7 7 8 8 9 9 10 10 10 10 9 10 10 9 10 9 7 6 7 8 8 7 8 8 8 8 10 10 12 10 6 7 9
12 13 13 12 13 11 9 8 7 8 10 10 10 9 9 9 10 10 10 10 8 5 4 6 7 8 7 8 8 8 7 7 8 10 11 12 12 12 11 11 11 11 11 11 9 7 6 7 9 10 11 12 11 9 8 8 8 9 8 8 7 7
11 12 12 13 12 12 11 10 10 8 10 11 12 12 11 9 10 9 9 8 7 7 4 5 5 6 7 7 7 8 10 12 11 11 10 8 8 11 14 14 13 12 11 11 10 11 10 7 10 16 16 13 13 13 12 12 12 10 8 9 11 9
9 10 11 11 11 12 12 11 10 9 10 10 10 11 11 12 11 10 9 8 7 6 4 4 5 4 5 7 8 7 6 7 8 8 10 10 11 12 10 7 9 9 8 9 9 9 13 14 10 5 13 13 15 16 13 7 7 9 8 13 17 11
9 8 9 10 11 12 13 12 12 10 11 11 11 11 11 11 10 9 9 9 8 8 6 4 4 5 5 6 6 7 8 7 6 7 8 7 7 10 12 11 10 7 9 9 8 7 6 5 9 11 14 15 14 15 15 12 11 13 14 17 12 9
10 8 9 10 11 11 12 12 11 11 10 11 11 11 10 10 9 9 9 9 9 10 8 5 4 4 5 6 6 7 7 7 8 6 4 4 8 10 12 12 10 10 11 12 10 8 5 5 7 11 15 16 16 16 16 15 13 14 15 16 13 8
9 7 8 10 11 11 11 12 12 11 10 11 12 12 11 10 10 10 9 9 9 9 9 7 5 4 5 6 6 7 7 8 8 9 8 3 3 6 11 12 11 11 11 12 13 13 11 9 8 11 14 16 16 17 17 16 16 16 16 17 11 10
8 6 8 10 11 11 11 11 12 11 12 12 12 11 11 11 10 10 9 8 9 9 8 7 5 5 5 5 5 6 7 8 8 9 8 7 4 1 4 7 11 12 12 13 14 13 11 11 12 12 14 16 16 16 16 16 13 17 20 18 12 10
7 4 8 11 11 11 10 10 10 10 12 13 13 12 12 10 10 9 11 15 11 7 7 7 6 5 5 5 5 6 6 7 7 7 8 10 11 10 10 9 8 9 12 11 10 12 13 13 13 15 15 17 17 18 17 16 11 13 13 14 11 10
4 3 5 7 8 9 9 10 10 11 12 12 13 13 12 11 10 9 9 9 9 8 7 7 7 5 5 5 5 5 5 5 6 7 8 7 7 7 7 5 6 6 6 10 10 13 14 14 15 15 17 17 19 19 20 14 12 11 12 12 11 10
Wind_Direction
232 228 229 227 222 214 208 205 195 197 199 196 193 193 193 189 192 193 193 191 190 188 189 186 186 186 184 180 176 173 176 179 180 179 182 175 171 166 163 167 169 172 179 179 179 173 182 185 200 201 222 226 237 234 236 232 225 230 233 232 227 231
232 220 212 209 209 204 198 190 183 192 194 187 193 192 184 184 189 186 190 190 186 183 182 187 185 182 181 177 172 177 180 180 177 177 172 180 170 172 167 169 171 174 176 180 174 174 180 204 221 219 227 223 227 225 224 218 215 224 229 229 219 220
245 240 224 221 210 192 178 183 192 193 184 191 188 185 184 187 188 184 189 179 185 177 182 181 180 181 178 174 177 177 181 175 174 177 177 156 174 165 168 172 175 175 177 174 176 179 191 216 224 216 220 220 221 218 214 213 208 215 219 221 226 222
241 235 206 202 184 186 184 193 185 190 191 189 185 185 190 186 182 182 178 181 179 179 178 178 180 179 178 176 177 180 177 174 176 172 157 172 174 168 170 174 172 173 175 178 180 187 207 217 224 217 211 211 208 207 205 207 203 206 217 209 225 224
238 209 196 196 195 193 188 184 188 191 189 181 185 182 189 182 179 176 174 175 177 180 178 177 180 176 175 175 177 179 177 176 175 168 169 173 168 174 171 172 172 175 176 176 183 202 215 218 218 209 202 201 197 199 201 203 199 204 208 214 223 222
107 145 178 188 189 183 191 190 191 185 181 182 176 186 180 177 175 174 171 173 176 177 174 177 174 172 175 178 179 180 179 174 173 171 171 170 162 170 176 170 172 173 177 179 194 210 220 217 210 202 199 197 194 196 198 193 195 200 207 213 217 216
26 198 197 195 202 203 192 193 191 183 183 176 181 184 180 178 172 170 171 169 172 175 174 174 172 174 178 180 178 182 176 173 168 171 170 160 169 174 165 177 174 175 176 187 200 212 215 211 202 197 197 196 190 193 193 189 188 197 206 210 213 207
354 101 184 190 205 201 197 191 186 184 181 187 183 182 175 177 164 170 170 171 168 173 176 176 174 181 182 182 182 181 175 170 169 171 171 167 171 170 176 176 183 180 182 190 203 212 210 203 197 195 194 194 190 187 187 185 190 199 203 207 210 205
308 258 211 205 193 188 188 181 186 183 180 190 191 179 172 169 166 170 170 171 173 174 182 179 183 183 185 186 183 174 169 172 172 168 173 175 170 172 177 182 181 180 182 193 204 212 205 201 197 195 192 192 190 185 184 187 195 203 206 209 207 205
300 279 253 230 216 206 193 195 189 184 182 190 186 167 161 163 164 169 174 174 179 182 184 185 184 186 187 182 173 171 173 170 170 177 171 165 173 178 179 180 178 171 176 196 207 208 201 198 198 195 191 189 188 185 188 189 194 202 206 205 205 203
307 291 278 264 254 215 210 205 206 200 204 191 177 167 171 163 166 174 176 177 183 189 185 184 186 179 172 167 164 168 173 175 177 172 167 175 180 178 178 173 167 166 182 203 206 204 201 198 198 191 184 185 187 187 189 191 193 196 200 201 201 200
313 301 284 270 236 223 218 211 203 201 196 199 189 175 175 154 173 172 179 186 192 189 183 178 172 169 163 164 172 178 177 175 174 170 171 180 178 171 166 165 169 172 187 203 208 203 199 199 197 196 185 180 180 185 192 190 190 192 193 194 194 197
332 320 309 290 244 223 214 209 204 201 203 203 191 190 178 163 170 182 184 195 196 184 171 169 174 164 172 179 177 175 175 176 169 171 176 176 169 168 168 165 171 182 189 206 209 199 199 196 193 201 193 186 181 180 185 186 190 190 190 187 183 189
341 335 326 315 311 293 239 215 209 187 207 197 198 187 159 175 175 178 188 196 181 173 174 175 169 173 179 175 183 179 179 167 166 174 176 167 168 171 160 174 182 180 189 201 211 211 196 194 196 193 202 194 189 182 178 187 190 191 191 182 181 186
328 326 327 330 319 302 300 299 202 207 205 195 198 143 153 177 185 189 189 185 176 179 178 174 175 180 180 185 182 177 165 168 174 174 169 178 175 156 172 186 176 183 187 198 199 212 214 207 201 195 198 200 191 186 176 182 186 189 199 183 182 182
331 329 326 329 338 329 279 267 274 301 236 175 141 164 171 174 183 183 193 185 187 182 179 176 179 185 188 182 175 168 171 173 185 182 172 154 154 173 183 180 184 181 189 197 198 204 204 211 220 203 198 198 192 187 183 177 183 190 194 188 182 181
331 334 338 346 340 338 348 337 314 285 300 175 169 177 173 183 180 183 182 183 189 184 180 179 184 188 181 174 170 172 179 184 178 172 170 169 176 179 184 185 185 188 186 195 195 197 211 215 218 218 207 199 194 188 183 176 180 183 195 192 184 179
332 328 324 326 336 344 352 347 329 290 248 222 195 187 186 180 183 190 178 181 184 186 188 183 187 185 173 171 172 178 185 186 181 180 176 169 173 180 173 189 187 186 189 189 189 192 208 227 215 207 213 204 198 184 181 177 175 182 189 190 187 184
327 324 323 332 344 349 351 343 342 327 298 181 200 180 188 174 190 196 190 191 187 186 188 190 185 183 177 175 176 186 188 185 187 182 160 164 174 178 190 193 191 188 183 187 192 196 206 212 211 204 206 207 195 175 185 176 176 179 183 190 189 188
326 327 335 336 342 351 347 344 342 333 320 284 164 166 184 191 214 204 195 200 194 190 187 191 188 184 181 178 186 189 192 189 180 176 172 177 175 188 194 183 184 190 192 189 194 196 196 208 202 197 201 202 189 178 179 179 174 181 182 189 184 179
329 323 334 347 352 347 345 342 340 340 332 323 13 120 190 231 238 212 206 210 200 195 192 189 190 189 183 187 194 189 183 183 184 179 172 180 176 181 160 170 184 191 198 202 198 195 196 201 207 200 198 194 185 180 179 172 173 176 186 169 175 179
329 344 351 347 342 338 343 343 341 338 344 347 326 182 222 232 233 230 239 232 209 205 198 191 188 192 192 196 195 188 189 177 156 162 173 179 171 165 169 175 185 193 201 193 201 203 201 193 202 204 202 195 187 181 171 172 168 184 182 179 170 164
333 333 332 331 335 340 342 345 345 341 341 337 344 308 280 279 290 269 226 209 209 207 205 200 195 194 200 204 200 189 174 170 174 167 173 173 164 156 165 182 188 194 196 195 205 204 207 198 194 204 201 196 189 182 172 178 183 176 170 174 175 181
332 329 333 340 342 343 344 347 345 338 339 338 337 326 318 316 299 281 251 209 201 203 201 200 203 203 201 195 166 163 182 179 169 175 170 160 162 171 180 178 183 190 195 196 201 209 208 199 196 194 207 198 191 186 180 175 188 170 164 166 180 181
334 333 330 331 339 342 346 347 345 341 337 337 329 325 324 324 319 297 270 243 213 202 201 202 198 200 197 191 184 175 182 174 165 161 160 161 167 175 178 183 183 186 196 199 206 207 206 199 201 193 197 204 195 191 187 180 169 172 167 169 179 188
326 323 325 329 335 343 346 355 346 343 340 331 327 327 325 327 325 316 289 258 233 213 205 203 203 205 199 194 181 183 176 173 173 167 173 172 172 176 182 189 185 189 199 203 206 204 205 201 193 199 196 197 201 194 192 185 175 172 180 176 179 178
333 328 322 325 334 342 353 359 352 348 346 336 334 328 331 328 323 320 309 280 248 223 214 200 201 201 200 191 176 180 181 173 168 173 180 171 179 181 187 191 186 196 201 201 206 204 197 197 195 190 197 194 197 197 193 188 179 180 171 173 177 170
338 332 328 327 331 345 2 359 354 360 350 339 334 332 331 329 325 319 315 300 264 243 217 203 206 200 198 190 188 191 185 178 180 182 179 182 186 186 189 189 189 200 201 208 209 202 195 187 191 194 187 191 193 197 196 185 181 178 180 171 164 174
340 338 335 331 336 350 351 356 349 7 350 343 338 334 333 330 328 319 318 314 296 245 213 210 202 194 193 193 193 194 188 186 185 182 182 188 186 187 192 191 191 198 203 210 208 195 176 184 190 194 192 189 190 193 189 180 182 171 159 155 158 153
337 331 335 335 338 345 343 344 354 9 357 345 343 336 333 332 331 325 319 313 309 285 224 223 205 189 188 195 187 188 194 195 187 189 192 189 188 186 196 195 196 198 200 206 197 181 177 187 194 196 195 195 192 187 181 180 170 174 172 160 155 151
332 328 335 338 342 337 336 343 348 6 4 356 345 340 338 333 327 321 314 310 307 297 265 233 217 205 192 189 195 204 197 188 190 202 212 214 201 199 192 190 199 202 204 199 187 179 191 195 203 211 200 193 187 181 177 181 186 176 169 158 141 130
329 329 340 340 339 334 334 338 347 354 358 350 344 345 343 336 330 327 325 318 307 298 279 251 244 225 206 191 193 201 226 243 221 208 200 207 205 213 226 215 212 209 190 193 206 191 191 203 214 156 174 183 185 196 198 195 169 163 146 148 148 143
333 339 347 341 340 336 334 334 340 352 356 350 345 343 338 337 331 324 323 324 319 312 298 265 242 237 217 208 195 192 201 215 237 227 222 219 201 209 218 219 221 195 194 194 200 207 219 103 115 154 173 182 184 185 190 186 174 163 152 150 143 151
335 351 351 344 342 336 332 331 334 346 348 346 341 341 338 332 327 320 316 317 313 312 305 282 249 235 225 219 200 191 191 191 204 242 259 224 205 205 209 217 210 196 188 191 186 172 201 184 149 158 171 178 178 180 181 185 177 171 163 166 160 166
329 347 352 346 339 335 333 330 328 339 344 343 339 335 333 328 320 311 309 310 312 312 305 291 262 230 230 224 205 199 190 188 193 198 216 272 334 221 206 206 205 194 187 184 185 185 186 186 166 160 168 174 177 175 177 176 175 172 169 162 174 195
324 356 356 343 336 331 330 327 329 336 339 340 334 330 325 314 308 305 307 312 312 311 307 297 271 249 233 230 225 211 196 200 196 198 186 179 195 266 272 238 210 196 185 189 186 186 180 171 165 165 167 170 171 170 167 164 167 169 172 177 188 188
320 19 2 345 332 330 327 323 323 333 336 335 333 327 320 308 312 316 311 309 313 312 308 301 284 265 246 237 228 222 215 208 200 187 184 187 192 197 199 200 207 204 189 187 189 185 176 169 169 170 168 166 166 166 161 151 152 167 180 189 196 195
325 55 13 344 328 325 322 319 326 334 332 332 334 328 316 313 317 317 313 312 315 317 317 314 303 268 245 231 229 229 224 212 194 193 197 196 195 195 191 191 194 188 202 189 186 183 176 171 169 168 166 166 166 164 159 162 177 179 190 194 192 193